| time (UTC) | temp C | wind direction | speed KPH | gust KPH | rain 1hr cm | rain 24hr cm | rain mn cm | humidity % | barometer mb |
| 20260507000017 | 7 | 293 | 1.6 | 11.3 | 0.00 | 1.27 | 1.27 | 94 | 1009.1 |
| 20260506233017 | 7 | 293 | 1.6 | 8.0 | 0.00 | 1.27 | 1.27 | 94 | 1008.9 |
| 20260506230016 | 7 | 293 | 1.6 | 12.9 | 0.00 | 1.27 | 1.27 | 94 | 1008.3 |
| 20260506223016 | 7 | 293 | 1.6 | 11.3 | 0.03 | 1.27 | 1.27 | 94 | 1007.9 |
| 20260506220018 | 7 | 270 | 1.6 | 12.9 | 0.03 | 1.27 | 1.27 | 94 | 1007.8 |
| 20260506213016 | 7 | 293 | 4.8 | 16.1 | 0.03 | 1.24 | 1.24 | 94 | 1007.1 |
| 20260506210016 | 8 | 293 | 8.0 | 22.5 | 0.05 | 1.27 | 1.24 | 93 | 1006.4 |
| 20260506203036 | 8 | 293 | 4.8 | 20.9 | 0.03 | 1.63 | 1.22 | 93 | 1005.9 |
| 20260506200016 | 10 | 293 | 9.7 | 20.9 | 0.00 | 1.60 | 1.19 | 92 | 1005.5 |
| 20260506193016 | 12 | 248 | 6.4 | 20.9 | 0.00 | 1.60 | 1.19 | 88 | 1005.4 |
| 20260506190038 | 14 | 225 | 3.2 | 20.9 | 0.00 | 1.60 | 1.19 | 90 | 1005.3 |
| 20260506183018 | 14 | 180 | 4.8 | 19.3 | 0.00 | 1.60 | 1.19 | 91 | 1005.2 |
| 20260506180016 | 15 | 158 | 6.4 | 22.5 | 0.00 | 1.60 | 1.19 | 92 | 1005.2 |
| 20260506173016 | 14 | 180 | 4.8 | 24.1 | 0.03 | 1.60 | 1.19 | 93 | 1005.3 |
| 20260506170016 | 13 | 158 | 3.2 | 22.5 | 0.08 | 1.60 | 1.19 | 93 | 1005.5 |
| 20260506163016 | 13 | 158 | 4.8 | 20.9 | 0.18 | 1.57 | 1.17 | 93 | 1005.6 |
| 20260506160018 | 13 | 135 | 4.8 | 24.1 | 0.20 | 1.52 | 1.12 | 93 | 1005.7 |
| 20260506153016 | 13 | 158 | 4.8 | 22.5 | 0.13 | 1.40 | 0.99 | 92 | 1005.9 |
| 20260506150036 | 13 | 135 | 8.0 | 19.3 | 0.18 | 1.32 | 0.91 | 93 | 1005.8 |
| 20260506143016 | 12 | 135 | 8.0 | 17.7 | 0.30 | 1.27 | 0.86 | 94 | 1006.1 |
| 20260506140036 | 12 | 158 | 3.2 | 16.1 | 0.33 | 1.14 | 0.74 | 92 | 1006.7 |
| 20260506133016 | 12 | 158 | 3.2 | 17.7 | 0.20 | 0.97 | 0.56 | 91 | 1007.2 |
| 20260506130016 | 12 | 135 | 8.0 | 17.7 | 0.08 | 0.81 | 0.41 | 90 | 1006.8 |
| 20260506123016 | 12 | 135 | 4.8 | 19.3 | 0.08 | 0.86 | 0.36 | 90 | 1006.7 |
| 20260506120017 | 12 | 135 | 4.8 | 20.9 | 0.15 | 0.84 | 0.33 | 90 | 1006.8 |
| 20260506113015 | 12 | 158 | 1.6 | 20.9 | 0.18 | 0.79 | 0.28 | 89 | 1007.2 |
| 20260506110016 | 12 | 0.0 | 12.9 | 0.13 | 0.69 | 0.18 | 88 | 1007.2 | |
| 20260506103015 | 12 | 0.0 | 0.0 | 0.10 | 0.61 | 0.10 | 89 | 1007.0 | |
| 20260506100016 | 11 | 0.0 | 0.0 | 0.05 | 0.56 | 0.05 | 92 | 1006.7 | |
| 20260506093017 | 11 | 0.0 | 0.0 | 0.00 | 0.51 | 0.00 | 93 | 1006.4 | |
| 20260506090018 | 11 | 0.0 | 0.0 | 0.00 | 0.51 | 0.00 | 93 | 1007.0 | |
| 20260506083018 | 11 | 0.0 | 0.0 | 0.00 | 0.51 | 0.00 | 93 | 1007.2 | |
| 20260506073017 | 11 | 0.0 | 0.0 | 0.00 | 0.58 | 0.00 | 93 | 1007.7 | |
| 20260506043017 | 11 | 0.0 | 0.0 | 0.00 | 0.58 | 0.00 | 86 | 1009.8 | |
| 20260506040042 | 12 | 0.0 | 0.0 | 0.00 | 0.58 | 0.58 | 86 | 1009.8 | |
| 20260506033042 | 12 | 0.0 | 9.7 | 0.00 | 0.58 | 0.58 | 89 | 1009.8 | |
| 20260506030018 | 13 | 338 | 3.2 | 19.3 | 0.00 | 0.58 | 0.58 | 90 | 1009.5 |
| 20260506023037 | 14 | 0.0 | 0.0 | 0.00 | 0.58 | 0.58 | 89 | 1009.2 | |
| 20260506020017 | 15 | 0.0 | 0.0 | 0.00 | 0.58 | 0.58 | 88 | 1008.8 | |
| 20260506013017 | 16 | 0.0 | 0.0 | 0.00 | 0.58 | 0.58 | 85 | 1008.5 | |
| 20260506010017 | 16 | 0.0 | 0.0 | 0.00 | 0.58 | 0.58 | 84 | 1008.1 | |
| 20260506003016 | 16 | 0.0 | 0.0 | 0.00 | 0.58 | 0.58 | 85 | 1007.9 |